Theta_e
336 339 339 338 336 332 329 333 338 339 338 336 336 336 335 335 334 331 331 333 331 329 328 329 329 329 330 330 328 322 321 323 325 328 330 331 331 328 326 325 324 324 323 322 323 323 323 323 323 322 323 322 321 319 318 317 315 314 320 319 316 318 317 317 316 316 316 315 315 315 315 314 314 314 314 314 314 314 314 314 314 314 314 314 314
338 339 339 339 338 335 329 328 334 336 338 336 335 335 335 335 333 330 332 334 331 329 328 329 329 330 330 331 329 322 321 324 325 326 329 330 327 323 323 325 325 326 325 323 322 322 322 322 323 322 322 321 320 318 317 317 314 314 317 314 313 315 315 316 316 316 316 316 315 315 315 314 314 314 314 314 314 313 313 314 314 314 314 314 314
340 339 339 340 338 337 330 327 329 332 336 337 336 335 336 336 333 330 332 334 331 329 328 329 329 330 331 332 331 324 321 323 324 325 326 325 321 320 324 328 328 328 326 325 325 325 323 321 320 320 319 318 317 316 316 315 313 314 314 311 313 314 315 316 316 317 316 316 315 315 315 315 314 314 314 314 314 314 314 314 314 314 314 314 314
339 339 339 340 339 338 332 327 326 328 333 337 336 336 336 336 334 330 332 334 332 330 328 328 328 329 330 331 332 329 323 322 322 322 324 323 323 325 329 330 331 330 327 325 326 327 324 320 318 317 316 316 315 315 315 313 312 313 311 312 314 314 315 316 316 316 316 316 315 315 315 315 314 314 314 314 314 313 314 314 313 314 314 314 313
339 339 340 340 339 338 334 327 326 327 330 336 337 336 337 337 335 330 331 334 332 332 330 328 328 329 329 329 331 332 327 324 322 323 326 328 330 332 332 332 332 331 329 327 326 328 325 319 317 316 315 315 315 314 314 312 311 311 311 314 315 315 315 316 316 316 316 316 315 315 315 315 314 314 314 313 314 313 314 314 313 314 313 313 313
339 339 341 340 340 339 335 328 326 327 328 334 337 337 338 338 337 332 329 332 333 333 332 329 328 328 329 329 329 331 332 329 326 325 329 331 332 332 333 333 332 331 330 328 328 329 325 319 317 316 314 314 313 313 312 311 311 311 313 315 315 315 315 316 316 316 315 315 315 315 315 315 314 314 314 313 313 313 313 313 313 313 313 313 313
339 340 341 340 340 340 336 329 327 328 327 330 335 337 338 338 338 335 329 330 332 333 333 331 328 329 328 329 328 329 331 332 331 329 330 331 331 332 332 332 332 332 331 330 329 329 326 318 316 315 313 314 315 313 312 311 312 312 313 315 316 315 314 315 315 315 314 315 315 315 316 315 315 314 314 313 313 313 313 313 313 313 313 313 313
339 340 340 341 340 339 336 330 327 328 329 329 334 337 337 338 338 337 332 329 331 331 332 332 330 329 329 328 328 328 329 331 332 331 332 332 332 332 331 331 332 331 331 331 330 330 327 318 315 314 313 320 324 319 315 313 314 314 313 315 316 315 313 314 314 314 314 314 315 315 315 315 315 314 314 313 313 313 313 313 313 313 313 313 313
340 340 340 340 340 339 336 331 327 327 330 331 335 337 337 339 339 339 335 330 329 330 331 332 331 330 329 328 328 328 329 329 330 331 332 332 332 332 332 331 331 330 330 330 331 331 328 319 315 315 316 326 329 325 320 318 317 316 315 316 316 315 314 314 314 313 313 313 314 315 315 315 315 314 314 313 313 314 313 313 313 313 313 313 313
341 340 340 340 339 338 336 332 328 326 328 331 335 338 337 339 340 339 338 333 330 331 331 330 331 331 330 328 328 328 328 329 329 331 332 333 333 333 332 331 330 330 328 329 331 332 329 320 317 320 322 326 329 327 326 324 322 320 317 316 317 317 316 315 314 313 312 312 312 313 315 315 315 315 314 314 313 314 313 313 313 313 313 313 313
342 341 340 340 338 337 336 332 329 328 327 329 334 337 336 336 339 339 339 337 333 331 332 330 330 331 330 328 327 327 327 327 328 329 331 333 333 332 332 331 330 329 328 328 330 333 329 322 318 322 325 327 330 330 329 328 326 325 322 317 318 321 320 317 315 313 312 312 312 313 313 314 315 314 314 313 314 314 313 313 313 313 313 313 313
342 341 340 339 336 336 336 333 330 329 328 328 333 337 336 335 338 339 339 339 336 333 332 331 329 330 331 328 327 326 326 327 327 327 328 330 331 332 332 331 331 330 328 327 329 333 330 324 320 324 327 328 331 332 331 330 329 329 326 320 321 324 323 321 318 314 313 313 313 312 313 313 314 315 314 313 313 314 314 313 313 313 313 313 313
342 340 339 337 336 336 336 334 332 329 328 329 332 334 335 334 336 339 338 339 338 335 333 332 329 329 331 329 327 325 325 327 327 326 327 328 328 329 331 332 331 330 328 325 326 331 331 326 323 325 329 330 331 332 332 332 331 330 328 324 324 325 324 322 320 315 312 313 313 313 312 312 313 314 314 314 314 314 313 313 314 313 313 314 314
341 339 337 336 336 336 336 336 334 330 329 329 331 332 333 334 336 337 337 338 338 336 334 333 329 328 330 329 327 325 324 327 327 327 327 325 325 325 326 329 331 329 328 325 325 330 331 328 324 323 326 330 331 331 332 332 331 331 328 326 326 325 324 322 322 318 314 313 312 312 312 312 312 314 314 314 314 314 314 314 313 313 314 314 314
340 337 337 336 336 337 336 336 334 331 329 328 330 332 334 334 336 337 336 337 337 337 335 333 330 329 330 329 328 326 324 326 327 328 326 323 323 322 321 324 327 328 328 326 325 328 330 329 325 321 319 323 330 332 332 332 332 331 328 326 325 325 324 321 323 322 320 316 312 312 311 312 312 312 314 314 314 314 314 314 314 314 314 314 314
339 337 336 336 337 337 336 335 333 331 330 329 328 330 333 334 335 335 336 336 337 336 335 333 331 329 330 330 329 327 324 326 328 327 324 320 320 320 321 322 322 324 325 323 322 326 329 329 327 324 318 316 325 330 331 332 331 331 328 325 324 325 324 321 323 325 323 318 314 312 311 311 311 311 313 314 314 314 314 313 313 314 314 313 313
338 337 336 337 337 337 336 336 334 331 331 331 330 330 331 332 332 331 333 336 337 336 335 333 331 330 330 330 329 326 324 326 328 327 322 321 320 319 321 322 322 321 321 320 320 322 325 329 328 326 322 315 321 329 331 331 331 330 329 326 324 325 325 322 322 324 322 320 316 312 310 310 310 311 312 313 313 313 312 312 312 313 312 312 312
339 338 338 338 338 337 337 337 335 333 333 333 333 332 330 329 330 329 331 335 336 335 334 333 331 330 330 330 329 325 324 326 328 326 323 322 319 318 322 323 322 321 319 317 318 318 320 326 328 327 324 318 321 330 332 331 331 331 330 327 324 326 327 322 321 321 321 321 317 311 310 310 309 310 311 312 312 312 312 311 311 312 311 311 312
339 339 338 338 338 338 337 337 335 334 335 334 334 333 332 330 330 329 330 335 336 335 335 333 331 330 330 329 327 324 324 327 327 326 323 321 318 319 322 322 322 320 318 316 316 316 316 321 325 326 327 321 320 329 332 331 331 331 330 328 324 326 328 324 321 318 320 320 314 311 311 310 308 309 310 310 311 311 311 310 310 310 310 310 311
338 338 338 338 337 337 336 334 331 331 333 333 334 333 332 331 330 329 330 334 335 335 335 334 332 331 330 328 325 323 324 327 327 326 323 320 319 321 322 322 321 319 319 317 316 317 317 320 321 323 327 325 319 325 332 331 331 331 330 328 325 327 328 326 322 318 319 318 313 312 312 310 308 308 308 308 309 309 310 309 309 309 310 310 310
334 334 334 333 333 332 331 330 327 328 329 330 332 333 332 332 332 332 331 332 333 334 334 335 333 331 329 327 323 322 325 327 327 326 322 320 322 323 322 323 321 321 321 319 318 318 319 321 320 320 323 327 322 321 329 332 330 331 330 328 327 327 327 327 325 320 319 318 314 313 312 310 308 307 307 307 308 308 308 309 309 309 309 310 310
330 330 330 329 329 329 328 328 328 328 327 327 329 330 332 333 334 334 333 333 333 332 332 333 331 330 328 326 323 321 325 327 326 324 320 320 323 324 323 322 322 322 322 320 319 319 319 320 320 320 319 323 326 322 326 331 329 329 330 329 327 327 326 327 326 322 321 318 315 314 311 309 307 307 307 307 307 307 307 308 308 309 309 309 309
328 328 328 328 328 327 327 328 328 328 328 328 327 328 330 332 334 334 334 334 332 331 330 330 329 328 328 324 324 322 324 326 324 322 319 321 323 324 323 321 323 322 321 321 320 318 318 318 317 320 318 319 326 325 323 328 329 329 330 329 327 327 326 326 325 323 324 322 318 316 313 310 307 307 307 306 307 307 307 307 307 308 308 308 308
328 328 328 328 328 326 326 327 328 329 328 329 329 328 328 330 332 333 333 333 331 331 330 331 329 330 327 322 325 325 325 327 327 325 321 321 323 325 324 322 322 322 323 323 320 319 318 317 315 318 318 318 325 328 323 325 328 329 329 329 328 327 326 325 324 323 326 325 321 319 316 312 308 307 307 306 307 306 307 306 306 307 307 307 307
327 328 328 327 326 325 325 325 327 329 329 330 330 329 328 328 332 333 332 328 327 329 330 331 331 331 328 323 327 327 326 327 329 329 324 320 322 325 326 322 321 322 323 323 323 321 318 316 315 316 318 318 325 329 325 323 326 329 329 329 328 327 326 324 323 324 325 325 322 321 318 315 311 309 307 307 307 306 306 306 306 306 306 307 306
325 325 324 324 324 324 324 323 323 325 328 329 329 330 329 328 331 333 330 325 323 327 328 329 330 330 329 328 329 328 326 327 328 330 327 322 322 324 326 322 321 322 323 324 324 321 317 315 314 314 316 318 324 329 327 322 323 328 329 328 327 325 325 323 323 323 324 324 323 321 320 318 315 312 310 307 307 307 307 307 307 306 306 306 306
322 322 322 322 323 323 324 323 322 321 322 325 327 330 330 329 330 332 331 325 320 321 324 327 329 330 330 330 331 328 327 328 328 330 329 327 324 323 325 323 321 322 322 323 323 318 315 315 314 316 317 319 323 327 327 323 320 326 329 327 326 324 324 323 322 323 322 322 322 320 319 318 317 316 313 310 307 307 306 307 307 307 306 306 306
322 322 324 324 323 323 323 323 323 321 320 319 322 327 329 330 331 332 332 329 321 317 321 327 330 330 330 330 330 330 328 328 330 330 330 330 327 324 325 323 321 322 322 323 322 320 318 316 315 317 320 321 322 322 323 323 320 323 328 327 326 324 323 323 322 321 319 318 319 319 319 318 318 318 316 314 310 308 306 307 307 306 306 306 306
321 321 324 324 324 323 323 322 322 322 321 319 319 323 327 331 332 332 332 332 328 321 320 326 330 330 330 329 330 331 329 330 331 331 330 331 330 328 327 324 322 322 323 323 322 323 324 323 319 318 322 324 323 321 320 320 319 321 326 327 326 324 323 322 321 318 316 316 318 320 320 319 319 318 317 316 314 311 308 307 306 306 306 306 306
320 320 321 322 322 322 322 322 322 321 321 321 320 321 324 328 331 332 332 332 331 328 322 322 326 329 330 330 331 331 331 332 332 332 331 331 332 331 330 328 325 323 323 324 323 324 324 326 325 322 323 326 325 324 322 319 318 318 323 325 325 325 324 322 320 317 316 315 316 318 320 320 319 319 319 318 317 315 312 310 308 306 306 306 306
319 319 319 319 319 320 320 321 321 321 322 322 323 323 322 324 328 330 331 332 332 331 328 323 322 325 327 330 332 331 332 332 332 332 331 331 331 331 331 330 328 325 324 324 324 324 324 325 327 326 325 326 327 326 325 323 320 318 319 321 322 322 321 320 318 316 316 315 315 317 318 319 318 318 319 319 318 317 315 313 311 309 307 306 306
319 318 317 317 317 318 319 319 318 319 321 323 325 325 324 324 326 328 330 331 331 331 331 329 326 325 327 330 331 332 332 332 332 332 332 331 331 331 330 330 330 327 325 324 325 325 325 326 326 327 326 327 327 326 326 326 324 322 320 320 321 321 321 320 318 316 315 316 316 317 318 319 318 318 317 318 318 317 317 315 314 312 310 308 307
318 317 316 315 315 315 315 315 314 317 321 324 325 326 325 324 325 326 328 329 331 331 331 331 330 329 329 330 331 332 332 332 332 332 332 331 331 331 330 329 330 329 328 326 325 325 326 327 328 328 327 327 327 327 326 326 325 325 325 324 325 325 324 323 322 320 318 317 317 318 319 319 318 318 317 317 317 318 317 316 315 314 313 311 309
318 316 316 315 314 312 312 312 312 314 320 324 324 324 325 324 324 324 324 325 327 329 330 331 332 332 331 330 330 331 332 331 331 331 331 331 330 331 331 331 330 330 330 329 327 327 326 328 328 328 328 328 328 329 328 327 326 326 327 327 327 327 326 326 325 325 323 322 322 321 321 320 319 317 316 316 317 317 317 317 316 316 315 314 313
318 317 317 315 313 311 310 312 312 313 317 322 323 323 322 321 321 321 320 320 322 324 325 326 328 330 331 332 331 331 332 332 331 330 330 330 330 331 331 331 331 331 331 330 329 328 328 328 328 329 329 329 329 330 329 328 327 326 327 327 327 328 328 327 327 327 326 325 325 324 324 324 323 322 319 318 317 317 317 316 316 316 317 316 316
318 317 316 314 312 310 309 310 311 312 315 319 321 319 318 317 316 316 317 317 319 320 321 321 322 325 328 330 331 332 332 332 331 330 330 330 330 331 332 332 332 331 332 331 330 329 329 329 329 330 330 329 329 330 330 329 327 326 327 327 328 328 328 328 328 327 327 327 327 326 326 326 326 326 325 323 320 319 318 317 317 318 318 319 318
318 316 314 313 312 310 309 308 309 310 312 315 315 314 314 314 313 314 316 317 318 319 319 319 319 320 321 323 325 327 330 331 331 330 330 331 330 331 332 332 331 332 332 330 328 327 329 330 329 328 329 329 329 329 331 331 328 326 327 328 328 328 328 328 328 328 327 327 327 326 325 326 327 327 327 326 324 323 322 322 321 321 322 321 321
319 315 314 313 311 310 309 308 308 309 310 310 310 311 312 312 313 315 317 317 317 317 318 318 318 318 319 319 320 321 324 327 328 328 329 328 329 331 331 331 331 332 331 329 327 326 329 329 327 326 326 328 329 329 330 331 328 326 327 328 329 328 328 328 328 328 328 327 326 325 324 325 326 327 327 327 327 326 326 326 325 324 324 323 323
318 315 314 313 311 310 308 308 307 307 307 307 308 309 308 309 313 316 316 314 312 314 316 316 315 315 315 316 316 318 320 322 323 324 326 327 328 331 331 329 330 331 330 330 329 328 329 328 326 326 326 326 328 330 331 330 328 326 327 328 329 329 328 328 328 327 327 326 325 324 323 323 324 327 328 328 328 328 328 327 327 326 325 324 323
317 315 315 313 312 310 308 307 307 306 306 306 307 307 306 308 312 312 311 309 309 310 311 311 310 311 311 311 312 313 316 318 318 319 323 327 328 329 329 328 329 330 331 332 332 329 328 328 327 325 324 325 327 328 330 330 328 327 328 329 329 329 328 329 328 328 326 325 325 325 324 323 321 324 327 328 328 328 328 328 328 327 326 324 323
317 316 316 314 311 310 308 308 307 306 306 306 307 307 308 309 310 310 308 307 307 307 307 306 307 308 309 310 310 311 311 313 315 315 318 323 325 326 328 329 330 331 331 331 332 332 329 328 327 324 324 325 327 328 328 329 329 329 329 329 329 329 329 329 329 329 328 327 326 325 325 325 322 321 324 327 328 329 328 328 328 327 326 325 325
317 316 316 314 312 310 309 308 307 307 308 308 309 309 310 310 309 310 308 306 306 306 306 306 306 306 306 307 308 309 310 312 314 313 312 315 319 321 323 327 328 329 330 331 331 331 330 329 328 326 326 328 329 329 329 329 330 330 330 329 329 329 329 329 329 329 329 328 327 326 325 325 324 323 322 323 325 327 329 328 328 327 326 326 326
318 317 317 315 312 311 309 308 308 308 309 310 310 311 310 309 309 309 309 307 307 307 307 307 306 306 305 305 305 305 307 309 310 310 308 311 314 316 317 319 322 323 326 328 329 329 329 330 329 329 330 330 331 331 331 331 330 330 331 331 330 330 329 329 329 329 329 329 328 326 325 324 324 325 324 323 323 324 327 328 328 327 327 327 327
318 317 318 316 313 311 309 308 309 310 311 311 311 312 311 309 309 310 310 309 308 308 308 307 307 307 306 305 304 303 303 304 305 305 306 308 310 311 311 311 315 318 319 322 325 324 325 327 328 329 330 330 330 330 331 331 330 330 331 331 331 330 330 330 329 329 329 328 327 327 325 325 325 324 324 324 323 322 323 325 326 327 327 327 327
318 318 318 317 314 311 310 309 310 310 311 312 312 312 311 310 310 310 310 310 309 309 308 308 308 307 307 306 305 304 303 303 303 304 304 305 306 307 307 307 309 313 316 319 321 321 322 322 324 325 326 327 327 328 329 330 330 330 330 330 330 330 330 330 329 328 327 327 327 327 326 326 326 326 325 325 325 323 322 323 324 325 326 327 327
318 318 318 318 315 312 310 309 310 311 312 312 312 312 312 310 309 310 309 309 309 309 309 309 308 308 308 307 306 305 304 304 304 304 305 304 304 305 306 306 306 307 310 313 316 319 320 321 322 322 323 324 325 325 327 328 328 329 329 329 329 328 329 329 329 328 327 327 327 327 327 327 326 326 326 326 326 326 325 324 324 325 326 326 326
318 318 318 318 316 313 311 310 311 311 311 312 313 312 311 310 309 309 309 309 309 310 310 309 309 308 308 307 307 306 305 304 304 305 305 305 305 305 305 307 307 307 307 309 312 316 318 319 320 321 321 322 322 323 324 325 326 326 327 328 328 328 328 329 329 328 328 327 327 327 327 327 327 327 327 327 327 327 327 326 326 326 327 327 327
319 318 318 318 316 313 311 311 311 311 310 311 312 312 311 310 309 309 310 310 310 310 310 310 309 309 308 307 307 306 306 306 305 304 304 305 305 305 306 307 308 309 309 310 312 315 316 317 318 318 318 319 319 319 320 320 321 322 323 324 325 326 327 327 328 328 328 328 328 327 327 327 327 328 328 328 328 328 328 328 327 327 327 328 328
319 318 318 318 317 314 312 311 311 311 310 310 311 312 312 311 309 309 310 310 310 310 311 311 311 310 308 308 308 307 307 306 306 305 305 304 304 304 304 305 306 307 308 309 309 311 312 313 314 314 315 316 316 316 316 316 316 318 319 320 322 323 323 324 324 325 326 326 327 327 327 328 327 327 328 327 328 328 328 328 328 328 328 328 328
318 319 319 318 318 315 312 312 312 311 311 310 311 312 312 312 310 309 309 311 311 311 311 311 311 311 310 308 308 308 307 306 306 306 305 305 305 305 304 304 304 304 305 306 306 305 306 306 307 308 309 311 312 313 314 314 314 315 316 317 319 320 321 322 322 323 324 325 325 326 326 327 327 327 327 327 328 328 329 329 328 328 328 329 329
319 318 319 318 318 316 314 313 313 312 312 311 311 312 312 312 310 309 309 310 310 311 310 311 311 311 311 310 309 308 308 307 307 306 306 305 305 305 305 305 305 304 304 304 304 304 304 304 304 304 305 306 307 309 311 312 313 315 316 316 317 319 321 322 323 323 323 325 326 327 326 325 326 327 327 328 328 328 329 329 329 329 329 329 329
Wind_Speed
20 16 15 14 12 10 11 15 17 17 17 17 16 16 16 16 16 17 16 14 13 12 12 12 12 13 13 13 14 14 15 16 18 19 21 21 21 19 18 17 15 13 12 11 10 9 8 8 8 8 8 8 6 5 5 5 5 6 6 8 10 10 10 11 13 13 15 18 18 17 16 15 14 13 13 13 14 14 15 16 17 17 18 19 19
21 18 16 14 12 10 10 14 16 17 17 17 17 17 16 16 17 17 16 14 13 12 12 12 13 13 13 13 14 15 16 17 18 19 20 20 19 19 18 16 15 13 11 10 9 9 8 8 8 8 9 9 8 6 6 6 6 7 6 9 12 11 10 10 12 12 15 18 18 17 16 15 14 13 13 13 13 13 14 15 16 16 17 17 17
21 19 16 15 12 11 10 12 15 17 17 18 17 17 16 16 17 18 16 14 13 13 13 13 13 13 13 13 14 15 16 17 18 18 18 18 18 18 18 16 15 14 12 10 9 8 7 7 8 9 10 11 11 9 8 7 8 9 7 11 14 12 11 10 11 11 13 16 18 17 16 15 13 12 12 12 12 13 13 14 15 15 15 16 15
21 19 17 16 13 11 11 11 13 15 17 18 18 17 16 15 17 18 16 15 13 13 13 14 14 13 13 13 13 14 16 17 16 17 17 17 18 17 17 15 14 14 13 12 10 9 8 7 9 11 13 14 14 12 10 9 10 10 9 12 15 14 12 10 10 10 12 15 17 16 15 14 13 12 11 12 11 12 12 13 14 14 14 14 14
21 20 18 16 14 12 11 11 13 15 16 17 17 16 16 15 16 18 17 15 14 13 13 13 14 14 13 13 13 13 14 15 15 16 17 16 16 16 15 14 13 13 13 12 10 10 10 9 9 13 16 17 16 14 12 11 12 11 11 13 16 15 13 10 10 11 13 15 16 15 15 14 13 12 11 11 11 10 11 12 12 13 12 12 12
21 20 18 16 14 12 11 12 12 15 16 16 17 16 15 15 16 17 17 15 14 13 12 13 13 13 13 13 13 12 12 13 14 14 15 14 14 14 13 13 12 12 12 12 11 10 11 11 10 13 17 19 18 16 14 14 14 14 14 16 18 17 14 11 11 14 15 15 15 15 14 13 12 12 11 11 10 10 10 10 11 11 11 11 11
20 19 18 15 14 12 12 12 13 14 16 17 17 16 15 15 15 16 17 16 15 14 12 12 13 13 12 11 12 11 11 11 12 12 12 12 12 12 12 12 12 12 12 12 12 11 12 13 11 13 18 20 20 19 17 16 17 17 17 19 20 19 16 14 14 16 15 13 13 13 13 12 12 11 11 10 10 9 9 9 10 9 9 10 10
20 19 18 16 13 12 12 12 13 14 16 17 16 16 16 15 15 15 16 16 14 14 13 12 12 12 11 10 11 11 11 10 10 10 10 10 11 11 11 11 11 12 12 12 12 12 13 15 13 14 19 21 20 21 19 17 18 18 18 19 22 21 19 16 16 15 14 11 11 11 12 12 11 11 10 10 9 9 8 8 8 8 8 8 9
19 18 18 16 13 12 12 11 12 13 14 16 15 15 16 16 15 15 16 17 15 13 13 12 11 11 10 9 10 10 11 11 10 9 8 8 9 9 11 11 10 11 11 12 13 13 14 16 15 15 19 20 20 21 21 19 19 19 19 19 21 22 20 18 16 15 14 12 10 10 10 11 11 11 10 9 8 8 8 7 7 7 7 7 8
18 18 18 16 13 12 12 11 11 12 12 15 16 15 16 16 16 16 16 17 16 14 13 12 12 11 10 9 9 9 10 10 10 10 8 8 8 8 10 11 11 11 10 10 13 14 14 17 17 16 18 19 20 21 21 19 19 19 19 19 20 21 20 18 16 15 14 13 11 10 9 9 11 11 10 9 8 8 8 7 6 6 7 7 7
17 18 18 17 14 13 13 12 11 11 12 14 16 16 16 16 17 17 16 16 17 15 14 13 12 11 10 9 9 8 8 9 9 10 9 8 8 7 9 10 10 10 10 10 12 15 14 16 18 17 17 19 20 20 19 18 17 16 16 18 18 19 19 18 16 15 14 13 11 10 9 9 11 11 11 10 8 8 8 7 6 6 6 6 6
17 18 19 17 15 14 13 12 11 11 12 13 15 16 16 16 18 18 17 16 17 17 15 13 12 11 9 9 8 7 7 8 9 10 10 10 8 8 9 9 9 9 9 9 11 15 15 15 17 18 17 18 19 19 18 16 15 14 14 16 16 16 17 18 16 15 14 12 11 10 10 9 9 10 11 10 9 8 8 7 6 6 5 5 5
18 19 19 16 15 15 14 13 12 12 12 13 14 15 15 16 17 18 17 16 17 17 16 14 12 11 10 8 7 6 6 8 9 10 10 10 9 8 9 9 9 8 8 9 10 14 16 15 17 18 18 18 18 19 18 16 15 13 13 15 15 13 15 16 16 15 14 12 11 10 10 10 8 9 10 10 9 8 8 8 7 6 5 4 5
20 20 18 16 15 14 14 12 11 11 12 13 13 14 15 16 17 17 17 16 18 18 16 14 12 11 10 8 7 6 6 8 8 10 10 9 8 8 8 9 9 8 9 10 10 12 15 16 17 18 18 17 18 19 18 16 15 13 12 14 14 12 12 15 16 15 14 13 11 10 10 10 9 8 9 10 9 8 8 8 7 6 5 4 4
20 20 18 16 15 15 13 12 11 11 12 12 12 13 13 15 16 16 15 15 16 18 17 15 13 11 9 8 8 6 6 8 9 9 9 9 8 7 8 9 9 8 9 10 10 11 13 15 17 18 18 17 18 19 18 16 15 13 11 12 14 12 10 12 15 14 13 12 11 10 11 10 9 8 9 9 9 8 8 8 7 6 5 4 3
20 19 17 15 14 14 14 12 12 11 11 12 11 12 12 13 14 14 14 14 15 17 16 15 13 11 9 8 8 6 7 9 9 9 9 8 7 7 9 10 10 9 8 9 9 9 11 14 16 18 18 18 18 19 18 16 15 13 11 11 13 13 10 10 12 13 11 10 10 9 10 11 11 10 9 10 9 9 8 8 7 6 5 4 3
18 17 15 14 12 13 13 13 12 11 11 11 11 11 11 12 12 13 13 13 16 17 16 16 14 12 9 8 8 7 8 10 10 10 9 6 5 7 9 10 9 8 8 8 9 9 10 13 16 17 18 18 19 19 18 17 15 13 12 11 11 12 10 9 9 10 9 8 8 8 9 10 11 11 11 11 10 10 9 9 8 7 6 5 4
16 15 14 12 12 13 13 12 11 11 11 10 11 11 12 12 12 12 13 14 16 17 16 15 14 12 9 9 8 7 9 10 10 10 8 5 4 6 8 9 9 8 7 7 9 10 10 12 15 17 18 19 20 21 19 18 17 14 13 11 10 11 11 9 8 7 8 7 7 6 6 8 10 11 11 12 12 11 11 10 9 8 7 5 5
15 14 13 12 12 13 13 11 10 11 11 10 10 11 12 12 12 12 12 14 16 17 16 15 14 11 10 9 8 8 9 10 10 10 8 5 5 7 8 8 8 7 6 6 9 11 12 12 14 17 19 19 21 22 21 19 18 15 14 12 10 10 10 10 8 6 6 6 6 5 5 6 8 9 10 11 12 12 11 10 9 8 7 6 5
15 14 13 12 12 12 12 10 9 10 11 11 11 10 11 12 11 11 12 13 15 16 16 15 14 12 11 10 9 9 10 10 10 10 7 6 7 7 8 9 9 8 7 6 7 10 13 13 12 15 18 19 20 22 22 20 17 16 14 13 11 9 10 10 8 6 6 6 6 5 4 4 5 6 8 9 9 10 10 10 10 8 8 7 6
16 15 13 12 12 11 11 10 10 10 10 10 11 10 10 11 11 11 12 12 14 15 15 15 15 13 12 11 10 9 10 11 10 10 8 7 8 7 8 10 10 8 6 6 6 8 11 12 12 13 16 19 20 21 22 20 17 16 15 14 12 9 9 9 8 7 6 6 5 5 4 3 3 3 5 7 8 8 8 8 8 8 7 7 6
17 16 14 13 12 11 10 10 10 9 9 9 11 11 11 11 11 12 12 12 13 13 14 15 15 14 13 12 11 10 10 12 10 9 9 9 9 8 8 9 10 7 4 4 5 7 9 11 11 12 14 18 20 21 22 20 17 15 14 14 12 10 9 8 7 6 6 6 5 5 4 3 3 2 2 6 7 7 7 6 7 6 6 5 5
18 17 15 13 11 11 10 9 10 9 9 9 11 11 12 12 12 13 13 13 12 12 14 15 15 15 14 12 11 11 10 11 10 9 9 9 9 9 8 9 9 6 3 1 2 5 8 9 11 12 13 18 21 22 22 21 18 15 14 14 13 11 9 8 7 6 5 5 4 4 4 4 4 3 1 4 7 7 7 6 6 5 5 5 4
18 16 15 13 11 10 9 9 9 9 9 9 10 11 12 12 13 14 14 13 12 13 14 15 15 15 12 10 11 11 9 10 10 10 10 10 10 9 9 9 9 6 3 2 1 4 7 9 11 13 14 17 22 22 22 22 20 16 15 14 13 11 10 9 8 6 5 3 3 4 4 4 4 3 2 2 5 7 7 7 6 6 6 5 5
17 15 13 12 11 9 8 8 8 9 8 8 9 10 12 13 14 15 14 14 14 15 15 14 15 14 11 9 11 11 8 8 9 9 11 11 10 10 10 10 9 6 4 2 2 2 5 8 11 14 15 17 21 22 21 22 22 17 15 16 14 12 10 10 9 8 6 4 3 3 3 3 4 3 2 2 4 6 7 8 8 8 8 7 7
16 14 13 11 10 9 7 7 7 8 8 7 7 8 11 12 14 15 14 14 15 16 16 15 14 13 12 11 12 10 8 7 7 9 11 12 11 10 10 10 9 7 5 3 1 1 3 7 9 13 15 18 21 21 20 21 23 20 16 16 15 14 12 11 10 8 7 5 4 4 3 2 2 3 2 3 4 5 6 9 9 9 9 8 8
17 14 13 11 10 8 7 7 6 6 6 6 7 7 8 11 13 14 14 13 14 15 17 16 15 14 13 12 12 10 8 7 6 8 11 14 13 12 11 10 9 8 6 4 2 2 4 7 10 13 16 19 20 21 20 20 23 22 18 17 16 15 13 12 11 9 8 7 6 5 5 4 3 3 3 3 4 5 5 8 9 9 9 10 9
17 15 14 12 11 9 8 7 6 6 5 6 7 8 8 10 12 13 13 12 11 13 15 17 16 14 13 13 12 10 9 8 7 7 10 13 14 13 11 10 10 9 7 5 4 6 8 10 12 15 18 19 20 19 19 19 22 24 20 17 17 16 14 13 12 11 10 9 7 7 7 7 5 5 4 4 5 6 6 6 8 9 10 10 10
15 15 13 12 11 9 8 7 6 6 6 7 8 9 9 9 11 11 11 11 11 11 14 16 15 14 13 12 12 11 9 8 7 7 8 11 13 14 13 11 10 10 9 7 7 8 10 12 13 16 17 18 18 17 17 18 21 24 24 20 18 17 16 14 13 13 12 11 10 9 8 7 6 6 6 6 6 6 6 7 7 8 10 11 11
15 13 12 12 10 9 8 7 6 6 7 7 8 9 9 10 10 10 10 10 10 11 12 14 14 14 13 11 11 10 9 8 8 7 8 10 12 13 13 12 11 10 10 9 10 10 9 10 11 14 16 16 15 15 15 16 18 22 24 23 21 19 18 16 16 15 15 14 13 11 10 9 8 7 6 6 7 7 7 7 7 8 9 10 11
15 13 12 10 9 8 8 7 7 6 7 7 7 8 8 9 9 10 10 9 10 11 12 13 13 14 13 12 11 11 10 9 9 8 9 10 12 12 12 13 12 10 10 10 11 12 11 9 10 11 13 13 11 12 12 14 16 18 21 22 21 20 19 18 17 16 16 16 15 14 13 12 11 9 8 8 8 7 8 8 7 8 9 10 11
16 13 12 10 9 10 9 9 9 8 8 7 8 7 7 7 7 8 9 10 11 12 13 13 13 14 13 12 12 11 10 10 10 10 10 11 13 13 13 13 12 11 11 11 13 13 13 12 11 11 11 11 10 10 11 12 14 14 16 16 17 16 15 15 15 15 15 16 15 14 13 13 13 12 12 11 10 9 9 9 8 9 10 10 12
17 14 12 11 10 10 11 10 10 10 9 8 8 7 7 7 6 7 7 9 11 12 13 13 14 14 14 14 13 13 12 11 12 12 12 12 13 14 14 14 13 12 12 12 13 14 14 13 12 12 11 11 11 10 10 12 13 14 14 13 14 13 12 12 12 12 13 13 13 13 13 14 14 14 15 14 13 12 11 11 9 9 11 11 12
16 14 11 10 9 10 10 8 8 10 9 9 9 8 7 7 8 8 8 9 10 11 12 13 14 14 14 14 14 14 14 13 12 13 13 12 12 13 14 15 14 13 13 14 15 15 15 14 14 13 13 12 12 11 12 13 14 14 14 13 13 12 11 11 11 10 10 10 11 12 13 14 15 15 16 16 15 14 14 13 12 10 11 12 12
14 12 10 9 8 8 8 7 7 9 10 10 8 8 8 8 9 10 10 10 10 10 10 11 12 13 14 14 14 14 14 14 13 13 14 13 11 12 14 16 15 15 14 15 15 16 16 15 15 14 13 14 13 13 14 14 15 16 15 13 13 12 11 11 10 10 10 9 9 11 12 14 15 15 16 16 16 16 15 15 13 12 12 12 12
14 10 9 9 7 6 6 6 7 8 10 10 9 8 8 7 8 9 10 11 11 11 10 9 10 11 12 14 15 15 14 15 15 14 14 14 13 13 14 15 15 14 13 14 15 16 18 16 15 15 15 16 15 16 16 15 16 16 15 14 13 13 12 13 12 12 11 11 11 11 12 13 15 16 16 16 16 16 16 15 14 13 12 12 11
13 10 9 8 7 7 7 7 7 9 10 10 10 9 7 7 7 7 9 10 11 11 11 10 9 9 10 11 12 13 14 15 15 14 13 14 13 14 14 13 13 13 11 12 14 16 17 16 14 13 15 18 19 18 16 15 15 16 15 14 13 13 14 14 14 14 14 14 14 14 14 14 14 15 17 17 16 15 15 14 13 12 12 12 10
13 10 8 7 7 7 8 8 9 9 10 10 10 8 8 8 7 6 7 8 8 8 9 9 9 9 8 8 9 9 10 12 14 13 12 12 12 13 14 12 11 11 11 12 14 15 16 15 14 12 12 15 19 19 16 14 14 16 16 15 13 13 14 14 15 16 16 16 15 15 16 16 15 15 17 18 17 15 14 14 13 12 11 11 10
15 13 11 9 9 9 9 10 11 11 12 12 11 10 9 9 8 7 6 5 5 6 7 7 7 8 8 8 8 8 7 8 11 12 12 11 12 12 11 10 11 11 12 15 15 16 16 16 16 15 13 14 17 19 17 14 15 17 16 15 14 14 14 14 15 16 17 17 16 16 16 16 16 16 17 17 17 17 16 15 14 13 12 11 10
17 15 14 12 11 11 11 12 13 14 14 13 12 12 11 10 8 6 5 4 4 5 5 4 4 5 7 7 8 8 8 8 10 11 12 12 12 13 10 10 12 12 14 15 15 17 17 18 18 18 15 13 15 19 19 16 17 18 18 18 17 17 16 16 16 16 17 17 18 18 18 17 17 17 18 17 18 18 17 16 16 15 14 12 11
19 17 16 14 13 12 12 13 15 15 14 13 12 12 11 10 9 7 6 5 4 3 2 1 2 4 6 8 10 11 11 10 10 10 12 12 12 13 11 11 12 13 15 15 15 17 18 18 20 20 17 14 15 18 19 18 18 18 19 19 20 19 19 19 19 18 18 18 19 19 20 19 18 17 17 18 18 19 19 18 17 16 15 14 13
22 20 18 15 14 14 13 14 15 15 14 12 12 12 10 9 9 8 6 6 6 4 3 2 1 2 4 7 10 12 12 12 12 12 11 12 11 12 12 13 13 13 15 16 15 16 17 19 19 18 17 17 17 18 19 19 19 19 17 17 19 20 21 22 21 20 19 19 19 20 21 22 21 19 18 18 19 19 19 19 18 17 16 16 16
23 22 19 16 16 15 15 15 15 15 15 14 13 11 10 9 8 7 6 7 6 5 4 4 4 3 2 1 4 7 10 12 13 14 13 11 10 10 11 12 13 13 14 15 15 12 11 15 19 18 17 18 18 17 18 18 19 19 17 17 17 17 20 23 23 22 20 20 20 20 20 21 21 20 20 20 21 21 20 20 20 19 18 18 17
26 24 22 20 19 17 16 17 15 15 15 15 13 12 11 10 9 7 7 6 4 4 4 5 6 6 5 4 3 2 3 7 11 13 13 12 11 10 10 10 12 12 12 14 15 13 9 10 16 18 18 18 18 18 17 17 18 17 16 16 15 14 16 18 21 22 21 20 21 20 20 20 20 20 21 21 22 22 22 21 21 20 20 19 19
29 27 25 24 21 18 18 18 17 16 16 15 14 14 13 12 10 10 9 7 6 5 3 4 6 6 6 6 6 6 4 2 4 8 10 11 11 10 10 11 11 10 10 11 12 12 11 9 11 14 16 17 17 18 16 15 17 17 16 15 13 13 13 13 16 19 19 19 20 20 20 19 19 20 21 21 21 22 22 22 21 21 20 20 20
33 30 28 26 22 19 20 20 19 17 16 15 16 16 15 13 11 10 9 6 7 7 4 3 5 6 7 7 7 7 7 5 2 2 5 6 7 8 9 10 11 10 10 10 9 10 10 10 10 10 12 13 14 15 13 13 16 17 16 16 15 14 13 11 12 14 15 16 17 19 20 20 21 21 22 22 22 22 22 22 22 21 21 21 21
36 33 30 27 23 21 21 22 21 18 17 17 17 17 16 13 9 7 7 4 6 7 5 3 4 4 5 6 6 7 7 7 6 3 1 1 1 3 5 7 8 9 9 9 9 8 8 9 9 10 10 10 11 11 11 11 13 14 13 14 14 13 13 13 13 13 15 17 16 16 17 19 20 22 23 23 24 24 24 23 22 22 21 21 21
37 34 32 29 25 24 23 23 22 20 17 18 19 18 17 14 10 8 7 6 6 7 5 3 3 3 3 4 5 5 6 7 7 7 6 6 6 5 4 4 4 6 6 7 8 8 8 8 8 9 10 11 11 11 11 11 12 12 12 12 13 13 14 15 15 15 17 21 23 20 18 17 18 20 21 22 24 25 26 25 24 24 23 23 23
39 36 34 31 27 25 25 24 24 22 19 19 20 20 18 15 12 10 9 8 8 8 7 4 3 2 2 2 3 3 4 6 7 7 8 8 7 7 6 5 4 3 3 4 6 7 8 8 8 9 10 11 12 12 12 12 13 14 13 13 13 13 14 15 16 17 18 20 24 25 23 22 22 22 21 22 23 25 26 27 26 26 26 25 25
40 38 35 32 29 27 27 26 25 24 21 20 21 21 20 18 15 13 11 10 11 10 9 7 5 4 4 3 2 2 3 4 5 5 6 6 6 6 6 5 4 4 2 2 3 4 6 7 8 9 10 12 13 14 14 14 15 15 15 15 15 14 14 14 13 15 16 17 21 24 23 23 24 25 25 24 24 25 25 27 28 28 27 26 25
41 39 36 33 30 29 29 27 26 25 23 22 23 23 23 21 18 15 13 12 12 11 9 8 7 6 6 5 4 3 2 3 4 4 4 4 4 4 3 3 2 2 1 0 2 3 5 7 8 9 11 12 14 15 16 16 16 16 16 16 16 15 14 13 12 12 13 15 18 22 22 23 25 26 26 25 26 25 24 25 27 27 27 27 27
Wind_Direction
168 156 150 143 143 149 162 172 174 172 167 164 159 155 150 147 146 143 137 131 129 128 131 131 126 122 116 110 105 108 117 124 128 130 132 133 132 130 127 124 123 124 125 129 133 135 136 137 138 137 134 126 124 136 135 125 115 116 119 108 101 103 111 119 124 134 134 126 124 123 122 120 120 122 121 117 113 110 107 103 100 98 94 88 86
163 156 153 144 144 146 158 171 174 174 169 166 162 157 152 147 146 144 138 131 129 127 129 131 129 124 117 112 107 111 122 129 129 131 133 134 133 129 122 116 112 109 110 116 126 130 134 138 141 143 141 138 134 142 148 140 130 127 130 117 108 109 113 119 127 139 142 133 130 127 126 125 124 126 125 121 116 113 110 105 102 99 96 90 88
160 156 154 146 146 146 152 167 174 173 170 169 165 161 153 148 148 148 140 133 131 125 126 129 128 123 119 115 112 114 126 135 133 134 134 133 128 123 116 110 105 98 95 98 110 116 119 125 135 144 144 144 141 147 152 146 137 132 137 125 114 112 111 118 130 142 151 141 135 132 131 130 128 129 127 124 120 116 112 107 105 101 96 91 89
162 157 156 150 147 146 151 161 171 171 170 171 169 165 158 152 151 152 144 137 134 126 124 126 127 124 121 120 119 118 125 136 138 136 133 128 122 119 115 110 105 98 92 91 100 106 106 110 128 142 145 144 142 146 148 144 138 133 138 127 115 113 115 122 132 143 155 144 136 135 134 134 133 129 126 125 122 118 114 109 107 103 96 91 88
163 161 159 154 149 148 152 156 166 168 168 172 172 169 164 159 154 156 151 143 139 131 126 125 126 124 122 121 123 123 125 133 137 136 131 126 122 120 118 113 106 100 94 92 101 107 103 101 122 142 144 142 141 142 143 141 136 135 134 121 113 113 117 123 132 142 149 142 137 138 135 135 135 130 126 125 124 122 117 112 108 103 97 91 86
166 164 160 156 152 150 152 152 161 165 168 172 173 174 170 165 159 160 159 152 146 138 130 126 126 125 123 120 123 128 130 131 134 136 133 129 126 124 122 118 112 104 98 97 105 110 104 99 117 142 143 138 137 137 139 140 135 134 129 119 114 113 116 122 132 138 140 142 142 140 138 138 138 135 131 128 127 126 121 115 110 104 100 93 87
168 165 161 160 156 153 152 151 157 162 167 172 173 175 174 170 164 164 166 161 155 147 136 128 126 124 123 121 121 126 132 134 135 137 137 136 133 132 129 124 118 112 104 103 111 114 107 101 115 142 142 134 132 134 139 140 137 135 133 126 120 117 120 125 131 133 134 139 142 142 140 139 139 138 135 133 131 128 125 120 113 107 102 95 89
168 166 164 163 161 157 153 152 156 161 168 172 173 175 176 173 170 169 171 170 164 156 146 137 130 124 123 124 123 123 129 133 138 140 140 140 138 139 139 133 123 116 109 106 114 118 112 105 116 143 141 132 129 134 139 141 139 139 139 134 126 122 124 126 130 132 133 135 138 139 139 139 138 139 138 136 135 130 128 124 118 112 104 96 87
168 168 166 166 165 160 154 155 156 161 169 173 175 175 176 175 174 173 175 177 172 164 155 147 139 131 127 127 127 124 127 132 140 146 147 147 143 143 145 142 131 120 111 108 116 120 116 110 120 141 139 133 132 134 137 140 140 141 142 138 130 126 126 127 128 133 136 135 135 138 141 141 138 138 136 137 138 133 128 125 119 113 105 94 85
168 168 167 169 170 163 155 156 156 158 165 172 176 174 174 175 176 176 178 181 179 174 163 155 149 142 133 129 129 127 129 132 137 144 149 153 152 149 148 145 137 126 115 112 118 122 120 116 124 138 139 136 134 134 135 137 140 139 142 144 135 126 126 127 126 130 135 135 134 137 139 140 137 136 136 139 139 132 128 125 121 111 103 94 87
168 167 168 172 172 164 156 157 156 155 160 167 174 173 173 175 176 178 180 183 184 181 172 164 157 150 141 133 132 131 134 136 138 141 144 149 150 150 148 144 137 127 121 118 121 124 123 120 127 138 142 139 133 131 131 133 135 134 140 146 136 123 121 122 124 128 132 133 134 136 134 136 140 142 143 144 141 133 129 126 120 110 102 97 93
166 167 170 173 170 162 158 158 156 156 158 162 169 171 171 173 176 179 179 183 186 184 179 171 163 158 151 143 140 139 146 150 149 149 147 147 148 148 148 147 139 130 128 125 124 128 126 123 131 140 145 142 136 133 131 131 131 133 140 141 133 124 120 119 121 126 129 131 136 139 138 141 147 149 148 147 145 138 133 128 121 112 106 102 97
166 168 170 171 166 160 160 159 159 159 157 158 165 169 170 171 175 179 179 181 185 184 181 175 168 165 161 156 151 148 157 160 159 160 157 154 152 150 149 152 149 144 142 134 131 135 133 130 138 145 149 148 143 139 137 137 136 142 145 135 133 134 127 122 121 124 127 131 137 144 145 145 150 153 151 149 148 142 137 132 126 123 120 113 102
169 168 167 166 162 159 160 160 162 161 158 159 162 167 170 172 177 180 179 183 186 185 182 177 174 171 168 169 166 157 164 166 165 166 163 162 161 159 159 161 158 157 155 145 143 144 140 138 144 152 157 158 153 147 143 143 144 152 154 138 135 143 138 129 125 125 127 131 136 144 151 149 149 158 155 151 152 146 140 134 135 141 137 129 114
168 166 166 164 160 158 160 159 161 162 162 163 163 165 168 174 180 180 178 186 189 188 183 179 178 176 177 182 182 173 172 174 172 170 165 164 165 169 173 172 169 166 160 152 151 152 147 144 148 156 164 170 164 153 148 148 151 158 163 148 141 146 148 138 130 126 124 129 134 141 154 156 155 164 162 156 156 151 145 141 148 155 152 145 130
167 168 168 165 163 163 163 160 160 163 164 164 165 164 164 171 177 176 177 184 187 188 186 182 181 181 185 190 192 185 178 179 178 175 170 166 166 171 174 173 173 173 168 161 161 160 152 147 150 157 164 175 175 162 154 154 158 164 169 162 150 145 146 144 135 126 121 128 134 141 155 162 163 168 167 162 159 156 152 153 160 165 165 161 144
169 171 171 169 169 168 168 166 164 165 165 164 164 164 167 171 176 177 176 180 183 186 186 184 184 184 189 195 198 192 183 182 181 179 175 172 175 174 170 170 172 178 183 178 178 175 162 152 151 157 161 173 180 170 159 158 162 169 174 176 163 145 142 146 140 130 123 128 135 142 158 170 172 173 171 166 164 164 162 164 169 170 172 170 151
168 172 172 172 173 173 173 172 170 170 173 169 165 167 169 173 179 179 177 179 181 182 184 185 186 187 191 197 201 194 186 184 181 180 178 183 194 181 170 173 177 182 195 195 191 189 182 167 155 158 161 169 181 174 163 164 167 174 181 187 178 151 142 146 150 143 128 126 133 138 157 175 181 182 179 172 171 172 169 169 171 173 174 169 153
165 171 173 176 177 177 177 174 173 175 182 180 176 175 172 174 178 178 177 179 181 180 182 185 186 189 194 198 200 190 185 184 179 179 180 189 189 178 175 178 181 185 192 195 194 192 191 185 165 160 162 167 181 180 169 169 173 180 188 193 188 163 149 148 154 157 140 131 133 133 144 170 187 191 189 182 178 173 170 172 173 174 171 165 154
161 167 169 176 176 177 178 175 175 178 184 184 184 185 178 175 176 178 177 178 184 184 183 186 188 192 196 197 194 185 183 183 180 180 182 182 175 172 179 179 178 184 183 179 187 188 188 191 180 167 165 167 180 185 176 172 178 185 192 197 195 177 160 152 148 154 154 145 139 139 141 157 187 198 199 196 189 180 176 175 176 175 169 164 159
152 157 160 166 168 170 174 176 178 179 184 187 190 191 188 182 178 180 178 179 186 188 187 188 191 193 195 196 190 180 180 182 181 186 188 177 169 171 180 181 183 187 182 175 178 183 184 186 187 178 171 171 178 187 181 175 181 188 193 198 199 186 169 158 148 150 160 164 152 145 145 148 170 197 211 208 200 196 191 183 181 178 171 170 165
148 150 152 155 158 161 163 169 172 174 180 187 194 196 195 190 184 182 181 183 186 189 191 192 195 196 195 195 188 179 179 182 182 190 194 179 169 171 177 183 188 192 186 177 182 187 187 184 186 185 179 176 179 186 185 179 180 186 191 196 198 190 176 168 158 152 160 173 165 153 151 145 152 158 214 217 209 206 206 201 196 189 181 180 177
152 151 149 149 149 153 153 156 161 166 168 176 191 196 197 195 191 187 184 185 187 191 196 196 197 197 194 193 187 182 178 181 186 192 193 185 175 171 172 178 185 186 166 141 184 188 194 194 189 188 182 179 180 184 187 183 181 185 190 194 198 193 184 182 179 169 160 171 175 167 164 157 156 148 177 220 218 216 217 218 216 212 206 202 203
155 154 154 154 152 152 151 153 154 156 155 162 179 189 195 196 193 190 186 187 191 194 198 199 196 195 191 189 188 181 177 186 193 192 189 189 186 179 173 176 179 171 131 83 89 175 192 200 192 187 181 178 180 182 187 187 183 186 191 194 200 201 195 194 196 192 175 177 189 182 180 171 165 160 159 213 222 224 224 225 226 230 230 228 229
156 157 159 159 156 158 160 160 154 151 149 152 165 179 191 195 192 189 188 190 192 195 198 198 196 196 191 187 186 180 182 199 203 194 189 190 193 190 179 178 179 162 137 108 75 163 189 198 192 184 177 175 178 181 185 189 187 187 192 195 202 207 204 201 202 204 198 200 214 213 206 187 176 177 176 192 214 223 227 226 227 236 243 242 243
159 161 162 161 157 159 165 166 162 157 155 155 163 173 184 191 193 190 191 193 195 198 199 197 194 195 195 190 187 183 190 209 209 198 194 193 195 198 190 183 180 165 149 129 87 149 182 191 186 177 172 172 177 179 183 189 190 189 193 196 203 209 209 207 207 211 215 217 230 244 248 230 210 208 203 205 211 221 231 230 229 237 246 250 252
163 164 167 168 168 169 172 176 177 178 176 179 184 180 180 187 193 194 196 198 199 201 200 197 196 196 196 193 193 192 197 210 209 199 199 198 198 200 200 192 181 171 157 131 112 125 144 167 169 163 165 167 170 175 180 186 190 191 194 197 203 209 211 211 214 220 228 235 246 260 268 263 252 249 245 233 226 230 240 238 235 238 247 254 257
163 164 169 172 175 181 187 194 196 202 207 204 206 196 186 186 194 199 199 202 203 202 201 198 200 200 198 198 199 200 205 210 207 204 204 204 205 202 203 200 187 177 165 141 133 127 122 138 154 159 161 160 159 166 174 181 188 192 195 201 205 211 214 214 220 227 235 246 256 267 272 271 270 271 272 268 254 245 249 250 246 244 248 254 255
166 166 170 174 177 183 190 207 211 217 222 215 215 206 194 191 199 205 202 206 206 206 206 203 204 203 204 206 205 207 210 208 202 208 208 205 207 207 209 209 198 184 174 156 147 142 127 125 139 155 159 157 154 156 163 172 184 192 198 203 207 213 220 222 228 235 241 248 255 263 271 275 276 278 280 280 277 266 258 256 257 253 251 252 252
172 173 176 181 184 189 193 206 213 223 230 225 219 210 203 199 205 211 209 212 213 216 216 211 209 207 210 212 211 214 215 211 203 205 208 205 206 210 213 210 207 198 184 169 160 162 157 141 137 151 158 157 154 153 154 162 175 187 197 205 211 218 225 232 239 243 246 249 253 258 263 271 274 277 280 280 282 280 271 263 265 265 258 256 254
179 182 184 192 197 201 208 220 227 234 235 230 216 209 211 208 214 222 223 224 223 226 226 222 218 215 216 217 219 221 222 222 213 207 207 209 210 212 213 209 210 207 193 180 174 176 178 172 158 155 163 166 163 161 160 163 169 179 190 201 211 218 226 235 243 247 251 253 255 257 259 264 268 272 276 277 279 281 279 275 276 278 271 266 262
186 192 193 203 209 214 224 236 248 246 235 225 210 204 210 212 221 229 232 234 232 233 231 230 227 227 228 227 229 231 232 230 226 221 213 213 214 213 215 212 210 208 199 186 182 187 187 185 179 170 173 180 183 180 175 174 176 181 188 194 202 211 220 230 241 247 251 254 257 260 260 263 265 269 272 272 275 276 277 277 281 284 281 278 273
191 200 203 208 218 228 231 237 249 243 230 218 209 208 210 214 223 229 234 234 233 234 233 233 232 234 237 237 240 240 242 238 230 228 222 217 213 211 216 217 213 210 203 191 186 193 194 189 186 181 183 194 200 200 199 194 183 183 191 195 202 212 221 229 240 244 248 254 259 263 263 264 266 268 271 272 274 274 275 276 280 286 286 288 285
195 200 208 219 232 237 235 235 236 233 225 214 212 215 221 231 235 237 238 235 234 233 232 232 232 236 239 241 244 244 247 245 236 234 232 227 215 209 213 218 217 213 210 203 193 195 199 196 192 190 194 204 214 221 221 213 198 190 191 195 204 215 226 232 239 241 246 254 260 263 263 266 267 267 269 271 274 276 278 279 283 290 293 295 296
202 207 217 231 243 243 241 231 220 225 224 221 221 223 235 243 242 240 234 229 228 226 226 227 227 230 234 236 238 240 245 248 246 242 239 234 225 215 214 217 217 213 214 214 206 201 202 203 202 202 204 208 223 234 231 224 215 205 198 200 206 214 228 237 240 243 248 252 256 260 263 266 268 267 267 268 271 274 277 280 286 296 299 299 301
206 217 228 232 233 236 242 233 218 217 220 225 232 239 246 243 236 230 223 219 216 214 214 213 215 218 223 229 231 233 238 244 246 244 239 237 233 226 222 221 219 217 216 215 214 210 207 209 211 214 217 218 226 232 231 231 226 215 208 209 211 217 232 242 244 249 254 253 253 256 260 265 267 267 266 265 267 270 273 277 283 292 296 298 302
209 223 228 225 223 221 224 226 217 210 212 221 231 239 241 236 230 212 205 207 208 211 212 211 212 212 214 221 226 231 234 238 242 240 235 238 241 239 235 231 229 227 218 212 217 218 215 215 216 222 228 225 224 225 229 237 231 219 216 217 219 225 237 246 249 254 258 259 257 257 260 264 266 265 263 264 265 267 270 274 279 284 289 295 304
210 216 214 212 213 210 207 205 202 200 204 210 215 215 214 219 209 181 181 193 201 212 219 222 225 227 225 220 220 227 232 234 238 239 233 234 242 246 241 233 233 233 222 219 221 222 219 214 213 224 235 226 221 224 230 239 233 223 223 223 226 236 243 250 256 259 260 263 266 265 266 265 264 265 264 265 266 267 270 272 276 279 285 293 302
208 205 201 202 204 203 196 190 188 189 191 193 191 188 194 200 186 170 172 182 196 208 219 230 235 242 246 241 233 231 233 231 234 237 235 232 235 242 241 228 230 230 225 225 223 222 218 213 215 225 234 227 222 226 227 230 229 227 229 229 234 245 249 253 260 263 263 265 269 270 272 270 265 262 262 264 265 266 268 269 272 276 282 290 298
207 202 198 200 204 199 189 182 181 182 183 182 181 178 178 175 169 167 166 165 179 194 211 233 248 257 259 262 260 253 248 238 235 237 234 232 230 236 237 225 228 227 225 227 223 221 218 215 221 231 239 232 223 227 226 223 223 226 231 233 238 246 249 253 258 261 264 266 268 270 271 273 270 264 260 262 263 264 264 265 269 274 279 285 292
205 204 201 201 204 200 189 179 177 180 183 180 179 178 170 157 151 150 141 133 141 154 165 212 264 273 272 275 275 271 267 255 249 246 236 233 234 236 227 215 221 223 221 224 221 218 218 218 225 236 247 247 233 231 233 230 227 230 234 235 239 245 247 250 253 256 260 264 267 269 270 271 272 269 265 261 261 262 261 261 265 269 275 281 288
207 206 204 202 204 200 190 183 180 180 181 179 178 175 159 138 136 138 128 120 120 116 108 94 66 280 271 269 268 268 268 263 259 258 249 238 234 238 232 221 223 224 219 220 223 221 218 219 227 239 248 253 247 240 240 240 236 237 240 240 240 243 245 246 249 253 257 259 261 265 269 269 270 272 271 267 261 259 259 259 262 266 271 277 283
212 209 205 204 206 197 188 188 185 179 176 176 179 172 148 127 126 136 142 139 127 115 108 91 78 72 61 268 264 261 257 255 253 254 256 248 236 233 235 231 230 230 224 222 230 235 227 219 226 236 242 247 250 247 245 242 240 241 243 246 244 245 247 245 247 252 255 256 255 258 264 267 270 271 271 270 266 261 259 260 261 264 269 273 279
212 211 207 207 206 197 192 192 186 179 177 178 179 170 150 138 141 155 165 165 155 135 116 97 85 75 70 71 52 6 273 255 245 242 244 244 240 232 230 230 228 231 231 231 235 243 247 231 229 237 242 246 250 253 255 249 247 248 244 248 252 253 254 252 252 257 259 257 253 255 261 265 269 269 268 270 270 266 262 260 260 263 267 271 276
214 216 213 210 205 199 197 193 188 183 181 182 181 174 164 157 162 177 187 190 189 179 143 103 87 79 75 67 57 49 36 338 254 242 237 236 236 232 228 227 226 226 227 231 236 239 247 247 241 242 246 249 250 255 262 258 257 256 248 251 256 253 257 263 265 265 262 258 255 257 260 263 267 268 269 270 270 270 266 263 263 264 268 272 275
217 219 218 211 204 202 199 192 190 187 186 188 185 181 176 171 172 186 198 202 193 189 171 121 95 81 78 70 62 58 57 60 56 252 248 245 233 224 225 226 229 229 226 229 234 238 243 246 247 246 247 252 253 255 262 261 260 260 258 260 260 252 253 263 272 275 270 260 255 258 261 264 266 266 268 270 270 269 268 267 268 268 271 275 277
218 218 216 211 204 203 200 194 193 192 191 193 190 187 185 181 180 192 210 221 196 192 189 146 122 94 84 79 72 65 63 69 75 82 79 28 137 178 203 215 224 228 230 235 240 244 247 248 250 252 254 258 259 260 263 264 263 263 262 263 266 264 263 264 268 277 281 271 258 253 257 263 265 264 264 266 269 269 268 268 269 271 274 276 279
216 216 215 211 206 203 201 197 196 196 196 197 195 192 192 189 186 199 219 225 208 208 215 183 155 132 102 91 85 80 73 74 78 83 86 86 87 97 125 160 191 213 226 235 242 248 252 256 259 261 264 266 269 270 269 271 269 268 266 263 268 270 270 270 268 270 278 277 270 262 259 262 266 269 269 268 268 267 267 267 267 270 274 276 279
216 218 217 212 207 203 202 200 199 200 200 202 199 195 196 197 194 201 214 215 210 217 227 221 200 185 155 122 110 102 91 86 85 86 87 90 90 89 93 104 124 156 199 227 246 256 258 263 265 266 268 270 273 275 275 275 273 273 273 270 271 273 272 274 274 273 275 279 278 273 270 270 268 269 272 274 273 268 264 264 265 266 269 273 275
217 217 216 212 208 204 203 203 203 204 205 206 202 198 199 203 204 205 210 213 212 218 226 228 224 220 219 209 184 152 119 110 105 100 97 94 94 93 90 90 99 114 138 186 243 265 273 276 272 270 269 268 271 272 274 274 273 274 275 274 275 279 283 286 285 283 284 288 289 285 282 279 275 270 267 269 273 270 264 260 262 264 266 268 271
215 215 214 213 211 207 206 207 207 207 208 209 205 201 202 205 208 209 212 216 217 221 226 226 227 229 231 232 222 207 179 149 136 126 119 113 104 95 85 81 78 72 66 273 273 277 279 280 277 274 269 267 267 267 269 270 271 271 271 272 273 275 281 288 289 288 288 290 294 295 293 288 285 278 270 267 264 262 261 258 259 264 266 267 270